User: anonymous   Login
Location: Girdwood
(60.9430°N, 149.1660°W)
Time: 12:45:43
(UTC-09:00)
Language:

Iridium 86 - Orbit

View from above orbital plane
View from above orbital plane
View from above satellite
View from above satellite

Ground track
Ground track

The orbit data is extracted from the following two-line orbital elements,

1 25528U 98066B   16338.20323512  .00000220  00000-0  71507-4 0  9998
2 25528  86.3972  71.7514 0001951  96.7508 263.3910 14.34221490951273
Epoch (UTC): 03 December 2016 04:52:39
Eccentricity: 0.0001951
inclination: 86.3972°
perigee height: 776 km
apogee height: 779 km
right ascension of ascending node: 71.7514°
argument of perigee: 96.7508°
revolutions per day: 14.34221490
mean anomaly at epoch: 263.3910°
orbit number at epoch: 95127

The dashed part of the orbit path shows where the satellite is in the earth's shadow,  

DLR